{"data":{"norad_id":48468,"intl_designator":"2021-040AS","name":"STARLINK-2685","alt_names":[],"object_type":"PAYLOAD","status":"ACTIVE","operator":null,"country":"US","launch_date":"2021-05-09","launch_site_code":"AFETR","launch_vehicle":null,"mission":null,"orbit_class":"UNKNOWN","rcs_meters":null,"size_class":null,"mass_kg":null,"dimensions":null,"purposes":["comms"],"wikipedia_slug":null,"has_3d_model":false,"image_url":null,"decayed_at":null,"tle_current":{"epoch":"2026-09-19T23:46:06.564000Z","epoch_age_seconds":81228,"freshness":"FRESH","line1":"1 48468U 21040AS  26262.99035375  .00037771  00000+0  10971-2 0  9990","line2":"2 48468  53.1593   6.7179 0002210  27.8451 332.2670 15.35144702296282","mean_motion":15.35144702,"eccentricity":0.000221,"inclination_deg":53.1593,"raan_deg":6.7179,"arg_perigee_deg":27.8451,"mean_anomaly_deg":332.267,"bstar":0.0010971,"rev_number":29628,"period_min":93.802232331842,"perigee_km":458.97938702105,"apogee_km":462.00206047494,"semimajor_km":6838.627723748,"source":"CELESTRAK","updated_at":"2026-09-20T09:00:39.128844Z"}}}